Year,Month,Day,Hour,Minute,Value (Times are PST for insolation in W/m^2)
2009,02,21,00,00,0.00
2009,02,21,00,01,0.00
2009,02,21,00,02,0.00
2009,02,21,00,03,0.00
2009,02,21,00,04,0.00
2009,02,21,00,05,0.00
2009,02,21,00,06,0.00
2009,02,21,00,07,0.00
2009,02,21,00,08,0.00
2009,02,21,00,09,0.00
2009,02,21,00,10,0.00
2009,02,21,00,11,0.00
2009,02,21,00,12,0.00
2009,02,21,00,13,0.00
2009,02,21,00,14,0.00
2009,02,21,00,15,0.00
2009,02,21,00,16,0.00
2009,02,21,00,17,0.00
2009,02,21,00,18,0.00
2009,02,21,00,19,0.00
2009,02,21,00,20,0.00
2009,02,21,00,21,0.00
2009,02,21,00,22,0.00
2009,02,21,00,23,0.00
2009,02,21,00,24,0.00
2009,02,21,00,25,0.00
2009,02,21,00,26,0.00
2009,02,21,00,27,0.00
2009,02,21,00,28,0.00
2009,02,21,00,29,0.00
2009,02,21,00,30,0.00
2009,02,21,00,31,0.00
2009,02,21,00,32,0.00
2009,02,21,00,33,0.00
2009,02,21,00,34,0.00
2009,02,21,00,35,0.00
2009,02,21,00,36,0.00
2009,02,21,00,37,0.00
2009,02,21,00,38,0.00
2009,02,21,00,39,0.00
2009,02,21,00,40,0.00
2009,02,21,00,41,0.00
2009,02,21,00,42,0.00
2009,02,21,00,43,0.00
2009,02,21,00,44,0.00
2009,02,21,00,45,0.00
2009,02,21,00,46,0.00
2009,02,21,00,47,0.00
2009,02,21,00,48,0.00
2009,02,21,00,49,0.00
2009,02,21,00,50,0.00
2009,02,21,00,51,0.00
2009,02,21,00,52,0.00
2009,02,21,00,53,0.00
2009,02,21,00,54,0.00
2009,02,21,00,55,0.00
2009,02,21,00,56,0.00
2009,02,21,00,57,0.00
2009,02,21,00,58,0.00
2009,02,21,00,59,0.00
2009,02,21,01,00,0.00
2009,02,21,01,01,0.00
2009,02,21,01,02,0.00
2009,02,21,01,03,0.00
2009,02,21,01,04,0.00
2009,02,21,01,05,0.00
2009,02,21,01,06,0.00
2009,02,21,01,07,0.00
2009,02,21,01,08,0.00
2009,02,21,01,09,0.00
2009,02,21,01,10,0.00
2009,02,21,01,11,0.00
2009,02,21,01,12,0.00
2009,02,21,01,13,0.00
2009,02,21,01,14,0.00
2009,02,21,01,15,0.00
2009,02,21,01,16,0.00
2009,02,21,01,17,0.00
2009,02,21,01,18,0.00
2009,02,21,01,19,0.00
2009,02,21,01,20,0.00
2009,02,21,01,21,0.00
2009,02,21,01,22,0.00
2009,02,21,01,23,0.00
2009,02,21,01,24,0.00
2009,02,21,01,25,0.00
2009,02,21,01,26,0.00
2009,02,21,01,27,0.00
2009,02,21,01,28,0.00
2009,02,21,01,29,0.00
2009,02,21,01,30,0.00
2009,02,21,01,31,0.00
2009,02,21,01,32,0.00
2009,02,21,01,33,0.00
2009,02,21,01,34,0.00
2009,02,21,01,35,0.00
2009,02,21,01,36,0.00
2009,02,21,01,37,0.00
2009,02,21,01,38,0.00
2009,02,21,01,39,0.00
2009,02,21,01,40,0.00
2009,02,21,01,41,0.00
2009,02,21,01,42,0.00
2009,02,21,01,43,0.00
2009,02,21,01,44,0.00
2009,02,21,01,45,0.00
2009,02,21,01,46,0.00
2009,02,21,01,47,0.00
2009,02,21,01,48,0.00
2009,02,21,01,49,0.00
2009,02,21,01,50,0.00
2009,02,21,01,51,0.00
2009,02,21,01,52,0.00
2009,02,21,01,53,0.00
2009,02,21,01,54,0.00
2009,02,21,01,55,0.00
2009,02,21,01,56,0.00
2009,02,21,01,57,0.00
2009,02,21,01,58,0.00
2009,02,21,01,59,0.00
2009,02,21,02,00,0.00
2009,02,21,02,01,0.00
2009,02,21,02,02,0.00
2009,02,21,02,03,0.00
2009,02,21,02,04,0.00
2009,02,21,02,05,0.00
2009,02,21,02,06,0.00
2009,02,21,02,07,0.00
2009,02,21,02,08,0.00
2009,02,21,02,09,0.00
2009,02,21,02,10,0.00
2009,02,21,02,11,0.00
2009,02,21,02,12,0.00
2009,02,21,02,13,0.00
2009,02,21,02,14,0.00
2009,02,21,02,15,0.00
2009,02,21,02,16,0.00
2009,02,21,02,17,0.00
2009,02,21,02,18,0.00
2009,02,21,02,19,0.00
2009,02,21,02,20,0.00
2009,02,21,02,21,0.00
2009,02,21,02,22,0.00
2009,02,21,02,23,0.00
2009,02,21,02,24,0.00
2009,02,21,02,25,0.00
2009,02,21,02,26,0.00
2009,02,21,02,27,0.00
2009,02,21,02,28,0.00
2009,02,21,02,29,0.00
2009,02,21,02,30,0.00
2009,02,21,02,31,0.00
2009,02,21,02,32,0.00
2009,02,21,02,33,0.00
2009,02,21,02,34,0.00
2009,02,21,02,35,0.00
2009,02,21,02,36,0.00
2009,02,21,02,37,0.00
2009,02,21,02,38,0.00
2009,02,21,02,39,0.00
2009,02,21,02,40,0.00
2009,02,21,02,41,0.00
2009,02,21,02,42,0.00
2009,02,21,02,43,0.00
2009,02,21,02,44,0.00
2009,02,21,02,45,0.00
2009,02,21,02,46,0.00
2009,02,21,02,47,0.00
2009,02,21,02,48,0.00
2009,02,21,02,49,0.00
2009,02,21,02,50,0.00
2009,02,21,02,51,0.00
2009,02,21,02,52,0.00
2009,02,21,02,53,0.00
2009,02,21,02,54,0.00
2009,02,21,02,55,0.00
2009,02,21,02,56,0.00
2009,02,21,02,57,0.00
2009,02,21,02,58,0.00
2009,02,21,02,59,0.00
2009,02,21,03,00,0.00
2009,02,21,03,01,0.00
2009,02,21,03,02,0.00
2009,02,21,03,03,0.00
2009,02,21,03,04,0.00
2009,02,21,03,05,0.00
2009,02,21,03,06,0.00
2009,02,21,03,07,0.00
2009,02,21,03,08,0.00
2009,02,21,03,09,0.00
2009,02,21,03,10,0.00
2009,02,21,03,11,0.00
2009,02,21,03,12,0.00
2009,02,21,03,13,0.00
2009,02,21,03,14,0.00
2009,02,21,03,15,0.00
2009,02,21,03,16,0.00
2009,02,21,03,17,0.00
2009,02,21,03,18,0.00
2009,02,21,03,19,0.00
2009,02,21,03,20,0.00
2009,02,21,03,21,0.00
2009,02,21,03,22,0.00
2009,02,21,03,23,0.00
2009,02,21,03,24,0.00
2009,02,21,03,25,0.00
2009,02,21,03,26,0.00
2009,02,21,03,27,0.00
2009,02,21,03,28,0.00
2009,02,21,03,29,0.00
2009,02,21,03,30,0.00
2009,02,21,03,31,0.00
2009,02,21,03,32,0.00
2009,02,21,03,33,0.00
2009,02,21,03,34,0.00
2009,02,21,03,35,0.00
2009,02,21,03,36,0.00
2009,02,21,03,37,0.00
2009,02,21,03,38,0.00
2009,02,21,03,39,0.00
2009,02,21,03,40,0.00
2009,02,21,03,41,0.00
2009,02,21,03,42,0.00
2009,02,21,03,43,0.00
2009,02,21,03,44,0.00
2009,02,21,03,45,0.00
2009,02,21,03,46,0.00
2009,02,21,03,47,0.00
2009,02,21,03,48,0.00
2009,02,21,03,49,0.00
2009,02,21,03,50,0.00
2009,02,21,03,51,0.00
2009,02,21,03,52,0.00
2009,02,21,03,53,0.00
2009,02,21,03,54,0.00
2009,02,21,03,55,0.00
2009,02,21,03,56,0.00
2009,02,21,03,57,0.00
2009,02,21,03,58,0.00
2009,02,21,03,59,0.00
2009,02,21,04,00,0.00
2009,02,21,04,01,0.00
2009,02,21,04,02,0.00
2009,02,21,04,03,0.00
2009,02,21,04,04,0.00
2009,02,21,04,05,0.00
2009,02,21,04,06,0.00
2009,02,21,04,07,0.00
2009,02,21,04,08,0.00
2009,02,21,04,09,0.00
2009,02,21,04,10,0.00
2009,02,21,04,11,0.00
2009,02,21,04,12,0.00
2009,02,21,04,13,0.00
2009,02,21,04,14,0.00
2009,02,21,04,15,0.00
2009,02,21,04,16,0.00
2009,02,21,04,17,0.00
2009,02,21,04,18,0.00
2009,02,21,04,19,0.00
2009,02,21,04,20,0.00
2009,02,21,04,21,0.00
2009,02,21,04,22,0.00
2009,02,21,04,23,0.00
2009,02,21,04,24,0.00
2009,02,21,04,25,0.00
2009,02,21,04,26,0.00
2009,02,21,04,27,0.00
2009,02,21,04,28,0.00
2009,02,21,04,29,0.00
2009,02,21,04,30,0.00
2009,02,21,04,31,0.00
2009,02,21,04,32,0.00
2009,02,21,04,33,0.00
2009,02,21,04,34,0.00
2009,02,21,04,35,0.00
2009,02,21,04,36,0.00
2009,02,21,04,37,0.00
2009,02,21,04,38,0.00
2009,02,21,04,39,0.00
2009,02,21,04,40,0.00
2009,02,21,04,41,0.00
2009,02,21,04,42,0.00
2009,02,21,04,43,0.00
2009,02,21,04,44,0.00
2009,02,21,04,45,0.00
2009,02,21,04,46,0.00
2009,02,21,04,47,0.00
2009,02,21,04,48,0.00
2009,02,21,04,49,0.00
2009,02,21,04,50,0.00
2009,02,21,04,51,0.00
2009,02,21,04,52,0.00
2009,02,21,04,53,0.00
2009,02,21,04,54,0.00
2009,02,21,04,55,0.00
2009,02,21,04,56,0.00
2009,02,21,04,57,0.00
2009,02,21,04,58,0.00
2009,02,21,04,59,0.00
2009,02,21,05,00,0.00
2009,02,21,05,01,0.00
2009,02,21,05,02,0.00
2009,02,21,05,03,0.00
2009,02,21,05,04,0.00
2009,02,21,05,05,0.00
2009,02,21,05,06,0.00
2009,02,21,05,07,0.00
2009,02,21,05,08,0.00
2009,02,21,05,09,0.00
2009,02,21,05,10,0.00
2009,02,21,05,11,0.00
2009,02,21,05,12,0.00
2009,02,21,05,13,0.00
2009,02,21,05,14,0.00
2009,02,21,05,15,0.00
2009,02,21,05,16,0.00
2009,02,21,05,17,0.00
2009,02,21,05,18,0.00
2009,02,21,05,19,0.00
2009,02,21,05,20,0.00
2009,02,21,05,21,0.00
2009,02,21,05,22,0.00
2009,02,21,05,23,0.00
2009,02,21,05,24,0.00
2009,02,21,05,25,0.00
2009,02,21,05,26,0.00
2009,02,21,05,27,0.00
2009,02,21,05,28,0.00
2009,02,21,05,29,0.00
2009,02,21,05,30,0.00
2009,02,21,05,31,0.00
2009,02,21,05,32,0.00
2009,02,21,05,33,0.00
2009,02,21,05,34,0.00
2009,02,21,05,35,0.00
2009,02,21,05,36,0.00
2009,02,21,05,37,0.00
2009,02,21,05,38,0.00
2009,02,21,05,39,0.00
2009,02,21,05,40,0.00
2009,02,21,05,41,0.00
2009,02,21,05,42,0.00
2009,02,21,05,43,0.00
2009,02,21,05,44,0.00
2009,02,21,05,45,0.00
2009,02,21,05,46,0.00
2009,02,21,05,47,0.00
2009,02,21,05,48,0.00
2009,02,21,05,49,0.00
2009,02,21,05,50,0.00
2009,02,21,05,51,0.00
2009,02,21,05,52,0.00
2009,02,21,05,53,0.00
2009,02,21,05,54,0.00
2009,02,21,05,55,0.00
2009,02,21,05,56,0.00
2009,02,21,05,57,0.00
2009,02,21,05,58,0.00
2009,02,21,05,59,0.00
2009,02,21,06,00,0.00
2009,02,21,06,01,0.00
2009,02,21,06,02,0.00
2009,02,21,06,03,0.00
2009,02,21,06,04,0.00
2009,02,21,06,05,0.00
2009,02,21,06,06,0.00
2009,02,21,06,07,0.00
2009,02,21,06,08,0.00
2009,02,21,06,09,0.00
2009,02,21,06,10,0.00
2009,02,21,06,11,0.00
2009,02,21,06,12,0.00
2009,02,21,06,13,0.00
2009,02,21,06,14,0.00
2009,02,21,06,15,0.00
2009,02,21,06,16,0.00
2009,02,21,06,17,0.00
2009,02,21,06,18,0.00
2009,02,21,06,19,0.00
2009,02,21,06,20,0.00
2009,02,21,06,21,0.00
2009,02,21,06,22,0.00
2009,02,21,06,23,0.00
2009,02,21,06,24,0.00
2009,02,21,06,25,0.00
2009,02,21,06,26,0.00
2009,02,21,06,27,0.00
2009,02,21,06,28,0.00
2009,02,21,06,29,0.00
2009,02,21,06,30,0.00
2009,02,21,06,31,0.00
2009,02,21,06,32,0.00
2009,02,21,06,33,0.00
2009,02,21,06,34,0.00
2009,02,21,06,35,0.00
2009,02,21,06,36,0.00
2009,02,21,06,37,0.00
2009,02,21,06,38,0.00
2009,02,21,06,39,0.00
2009,02,21,06,40,0.00
2009,02,21,06,41,0.00
2009,02,21,06,42,0.00
2009,02,21,06,43,0.00
2009,02,21,06,44,0.00
2009,02,21,06,45,0.00
2009,02,21,06,46,0.00
2009,02,21,06,47,0.00
2009,02,21,06,48,0.00
2009,02,21,06,49,0.00
2009,02,21,06,50,0.00
2009,02,21,06,51,0.00
2009,02,21,06,52,0.00
2009,02,21,06,53,0.00
2009,02,21,06,54,0.00
2009,02,21,06,55,0.00
2009,02,21,06,56,0.00
2009,02,21,06,57,0.00
2009,02,21,06,58,0.00
2009,02,21,06,59,0.00
2009,02,21,07,00,0.00
2009,02,21,07,01,0.00
2009,02,21,07,02,0.00
2009,02,21,07,03,0.00
2009,02,21,07,04,0.00
2009,02,21,07,05,0.00
2009,02,21,07,06,0.00
2009,02,21,07,07,0.00
2009,02,21,07,08,0.00
2009,02,21,07,09,0.00
2009,02,21,07,10,0.00
2009,02,21,07,11,0.00
2009,02,21,07,12,1.10
2009,02,21,07,13,5.00
2009,02,21,07,14,5.00
2009,02,21,07,15,5.80
2009,02,21,07,16,7.00
2009,02,21,07,17,7.00
2009,02,21,07,18,7.00
2009,02,21,07,19,8.20
2009,02,21,07,20,9.00
2009,02,21,07,21,9.00
2009,02,21,07,22,10.40
2009,02,21,07,23,11.00
2009,02,21,07,24,11.80
2009,02,21,07,25,12.00
2009,02,21,07,26,12.00
2009,02,21,07,27,13.90
2009,02,21,07,28,14.00
2009,02,21,07,29,14.00
2009,02,21,07,30,16.00
2009,02,21,07,31,16.00
2009,02,21,07,32,16.20
2009,02,21,07,33,18.00
2009,02,21,07,34,18.00
2009,02,21,07,35,18.20
2009,02,21,07,36,19.00
2009,02,21,07,37,19.80
2009,02,21,07,38,24.50
2009,02,21,07,39,34.00
2009,02,21,07,40,39.00
2009,02,21,07,41,40.70
2009,02,21,07,42,46.30
2009,02,21,07,43,51.50
2009,02,21,07,44,53.00
2009,02,21,07,45,51.60
2009,02,21,07,46,52.60
2009,02,21,07,47,53.80
2009,02,21,07,48,58.50
2009,02,21,07,49,62.70
2009,02,21,07,50,63.00
2009,02,21,07,51,67.00
2009,02,21,07,52,68.90
2009,02,21,07,53,64.00
2009,02,21,07,54,45.90
2009,02,21,07,55,37.80
2009,02,21,07,56,47.70
2009,02,21,07,57,78.00
2009,02,21,07,58,85.40
2009,02,21,07,59,84.00
2009,02,21,08,00,87.70
2009,02,21,08,01,97.10
2009,02,21,08,02,100.90
2009,02,21,08,03,103.50
2009,02,21,08,04,108.30
2009,02,21,08,05,112.70
2009,02,21,08,06,112.20
2009,02,21,08,07,115.70
2009,02,21,08,08,123.10
2009,02,21,08,09,126.40
2009,02,21,08,10,119.50
2009,02,21,08,11,119.80
2009,02,21,08,12,118.20
2009,02,21,08,13,134.10
2009,02,21,08,14,134.00
2009,02,21,08,15,142.00
2009,02,21,08,16,144.10
2009,02,21,08,17,148.00
2009,02,21,08,18,148.00
2009,02,21,08,19,148.80
2009,02,21,08,20,153.40
2009,02,21,08,21,155.30
2009,02,21,08,22,157.10
2009,02,21,08,23,160.60
2009,02,21,08,24,162.40
2009,02,21,08,25,160.20
2009,02,21,08,26,163.50
2009,02,21,08,27,171.60
2009,02,21,08,28,173.20
2009,02,21,08,29,175.30
2009,02,21,08,30,172.70
2009,02,21,08,31,176.10
2009,02,21,08,32,181.90
2009,02,21,08,33,173.00
2009,02,21,08,34,134.50
2009,02,21,08,35,115.60
2009,02,21,08,36,119.10
2009,02,21,08,37,133.60
2009,02,21,08,38,148.00
2009,02,21,08,39,136.10
2009,02,21,08,40,155.10
2009,02,21,08,41,157.80
2009,02,21,08,42,173.20
2009,02,21,08,43,179.40
2009,02,21,08,44,183.40
2009,02,21,08,45,194.60
2009,02,21,08,46,207.70
2009,02,21,08,47,207.20
2009,02,21,08,48,199.80
2009,02,21,08,49,171.50
2009,02,21,08,50,142.30
2009,02,21,08,51,191.60
2009,02,21,08,52,231.90
2009,02,21,08,53,242.70
2009,02,21,08,54,254.60
2009,02,21,08,55,235.70
2009,02,21,08,56,224.60
2009,02,21,08,57,207.90
2009,02,21,08,58,218.40
2009,02,21,08,59,235.10
2009,02,21,09,00,278.30
2009,02,21,09,01,298.20
2009,02,21,09,02,308.70
2009,02,21,09,03,314.10
2009,02,21,09,04,322.80
2009,02,21,09,05,324.00
2009,02,21,09,06,335.60
2009,02,21,09,07,339.80
2009,02,21,09,08,339.00
2009,02,21,09,09,345.00
2009,02,21,09,10,349.40
2009,02,21,09,11,356.80
2009,02,21,09,12,360.50
2009,02,21,09,13,364.20
2009,02,21,09,14,350.40
2009,02,21,09,15,312.00
2009,02,21,09,16,282.50
2009,02,21,09,17,271.80
2009,02,21,09,18,283.80
2009,02,21,09,19,353.00
2009,02,21,09,20,372.20
2009,02,21,09,21,379.20
2009,02,21,09,22,382.80
2009,02,21,09,23,362.00
2009,02,21,09,24,295.00
2009,02,21,09,25,215.10
2009,02,21,09,26,195.70
2009,02,21,09,27,169.00
2009,02,21,09,28,168.70
2009,02,21,09,29,166.50
2009,02,21,09,30,164.20
2009,02,21,09,31,159.20
2009,02,21,09,32,152.20
2009,02,21,09,33,151.90
2009,02,21,09,34,153.90
2009,02,21,09,35,155.00
2009,02,21,09,36,157.50
2009,02,21,09,37,171.00
2009,02,21,09,38,182.90
2009,02,21,09,39,193.30
2009,02,21,09,40,197.00
2009,02,21,09,41,350.90
2009,02,21,09,42,392.00
2009,02,21,09,43,382.20
2009,02,21,09,44,373.90
2009,02,21,09,45,354.10
2009,02,21,09,46,353.00
2009,02,21,09,47,167.00
2009,02,21,09,48,173.40
2009,02,21,09,49,163.00
2009,02,21,09,50,167.90
2009,02,21,09,51,204.80
2009,02,21,09,52,237.80
2009,02,21,09,53,263.20
2009,02,21,09,54,276.10
2009,02,21,09,55,244.30
2009,02,21,09,56,219.10
2009,02,21,09,57,252.90
2009,02,21,09,58,216.70
2009,02,21,09,59,178.80
2009,02,21,10,00,158.00
2009,02,21,10,01,184.10
2009,02,21,10,02,229.90
2009,02,21,10,03,233.20
2009,02,21,10,04,213.80
2009,02,21,10,05,218.20
2009,02,21,10,06,237.50
2009,02,21,10,07,252.20
2009,02,21,10,08,268.30
2009,02,21,10,09,292.00
2009,02,21,10,10,279.00
2009,02,21,10,11,322.00
2009,02,21,10,12,326.90
2009,02,21,10,13,298.70
2009,02,21,10,14,315.30
2009,02,21,10,15,352.60
2009,02,21,10,16,356.10
2009,02,21,10,17,352.00
2009,02,21,10,18,351.30
2009,02,21,10,19,382.60
2009,02,21,10,20,352.00
2009,02,21,10,21,338.90
2009,02,21,10,22,413.30
2009,02,21,10,23,434.30
2009,02,21,10,24,439.10
2009,02,21,10,25,429.60
2009,02,21,10,26,414.90
2009,02,21,10,27,421.90
2009,02,21,10,28,442.20
2009,02,21,10,29,437.30
2009,02,21,10,30,444.50
2009,02,21,10,31,456.40
2009,02,21,10,32,439.00
2009,02,21,10,33,449.50
2009,02,21,10,34,453.30
2009,02,21,10,35,432.20
2009,02,21,10,36,342.80
2009,02,21,10,37,272.70
2009,02,21,10,38,301.00
2009,02,21,10,39,321.50
2009,02,21,10,40,396.70
2009,02,21,10,41,425.70
2009,02,21,10,42,415.40
2009,02,21,10,43,381.80
2009,02,21,10,44,381.50
2009,02,21,10,45,387.00
2009,02,21,10,46,355.50
2009,02,21,10,47,328.80
2009,02,21,10,48,307.40
2009,02,21,10,49,258.00
2009,02,21,10,50,272.80
2009,02,21,10,51,275.90
2009,02,21,10,52,271.30
2009,02,21,10,53,259.40
2009,02,21,10,54,251.40
2009,02,21,10,55,271.00
2009,02,21,10,56,260.00
2009,02,21,10,57,253.30
2009,02,21,10,58,258.00
2009,02,21,10,59,257.40
2009,02,21,11,00,252.60
2009,02,21,11,01,247.80
2009,02,21,11,02,234.50
2009,02,21,11,03,217.80
2009,02,21,11,04,213.30
2009,02,21,11,05,215.50
2009,02,21,11,06,217.10
2009,02,21,11,07,214.50
2009,02,21,11,08,209.50
2009,02,21,11,09,211.10
2009,02,21,11,10,210.10
2009,02,21,11,11,211.70
2009,02,21,11,12,214.00
2009,02,21,11,13,221.70
2009,02,21,11,14,230.80
2009,02,21,11,15,238.20
2009,02,21,11,16,234.50
2009,02,21,11,17,252.00
2009,02,21,11,18,259.50
2009,02,21,11,19,272.00
2009,02,21,11,20,276.60
2009,02,21,11,21,293.50
2009,02,21,11,22,311.20
2009,02,21,11,23,337.50
2009,02,21,11,24,338.20
2009,02,21,11,25,366.70
2009,02,21,11,26,366.30
2009,02,21,11,27,350.70
2009,02,21,11,28,322.30
2009,02,21,11,29,329.40
2009,02,21,11,30,331.00
2009,02,21,11,31,325.30
2009,02,21,11,32,320.00
2009,02,21,11,33,323.10
2009,02,21,11,34,330.90
2009,02,21,11,35,342.70
2009,02,21,11,36,350.70
2009,02,21,11,37,367.80
2009,02,21,11,38,377.80
2009,02,21,11,39,390.20
2009,02,21,11,40,403.30
2009,02,21,11,41,424.80
2009,02,21,11,42,461.00
2009,02,21,11,43,481.20
2009,02,21,11,44,467.30
2009,02,21,11,45,477.00
2009,02,21,11,46,469.00
2009,02,21,11,47,463.20
2009,02,21,11,48,440.60
2009,02,21,11,49,428.40
2009,02,21,11,50,419.00
2009,02,21,11,51,412.40
2009,02,21,11,52,398.90
2009,02,21,11,53,380.50
2009,02,21,11,54,365.30
2009,02,21,11,55,342.20
2009,02,21,11,56,326.90
2009,02,21,11,57,322.90
2009,02,21,11,58,322.00
2009,02,21,11,59,319.20
2009,02,21,12,00,319.70
2009,02,21,12,01,326.20
2009,02,21,12,02,329.80
2009,02,21,12,03,348.00
2009,02,21,12,04,343.00
2009,02,21,12,05,338.00
2009,02,21,12,06,336.90
2009,02,21,12,07,299.80
2009,02,21,12,08,288.80
2009,02,21,12,09,279.00
2009,02,21,12,10,279.00
2009,02,21,12,11,280.10
2009,02,21,12,12,283.00
2009,02,21,12,13,283.00
2009,02,21,12,14,283.00
2009,02,21,12,15,283.00
2009,02,21,12,16,263.00
2009,02,21,12,17,245.10
2009,02,21,12,18,243.90
2009,02,21,12,19,237.30
2009,02,21,12,20,236.70
2009,02,21,12,21,247.10
2009,02,21,12,22,248.70
2009,02,21,12,23,237.50
2009,02,21,12,24,242.10
2009,02,21,12,25,233.20
2009,02,21,12,26,229.20
2009,02,21,12,27,229.00
2009,02,21,12,28,220.00
2009,02,21,12,29,225.30
2009,02,21,12,30,229.40
2009,02,21,12,31,226.70
2009,02,21,12,32,235.70
2009,02,21,12,33,236.20
2009,02,21,12,34,244.50
2009,02,21,12,35,244.80
2009,02,21,12,36,236.20
2009,02,21,12,37,218.90
2009,02,21,12,38,209.00
2009,02,21,12,39,210.00
2009,02,21,12,40,212.10
2009,02,21,12,41,213.60
2009,02,21,12,42,222.70
2009,02,21,12,43,229.10
2009,02,21,12,44,236.60
2009,02,21,12,45,248.30
2009,02,21,12,46,252.70
2009,02,21,12,47,245.00
2009,02,21,12,48,237.80
2009,02,21,12,49,239.00
2009,02,21,12,50,237.00
2009,02,21,12,51,240.80
2009,02,21,12,52,248.30
2009,02,21,12,53,254.30
2009,02,21,12,54,265.80
2009,02,21,12,55,274.20
2009,02,21,12,56,284.30
2009,02,21,12,57,289.10
2009,02,21,12,58,294.50
2009,02,21,12,59,304.00
2009,02,21,13,00,298.60
2009,02,21,13,01,283.00
2009,02,21,13,02,276.90
2009,02,21,13,03,262.00
2009,02,21,13,04,261.50
2009,02,21,13,05,268.40
2009,02,21,13,06,274.70
2009,02,21,13,07,267.90
2009,02,21,13,08,246.30
2009,02,21,13,09,227.70
2009,02,21,13,10,216.80
2009,02,21,13,11,207.50
2009,02,21,13,12,199.40
2009,02,21,13,13,192.00
2009,02,21,13,14,185.00
2009,02,21,13,15,178.70
2009,02,21,13,16,173.40
2009,02,21,13,17,168.30
2009,02,21,13,18,164.70
2009,02,21,13,19,162.80
2009,02,21,13,20,161.50
2009,02,21,13,21,160.90
2009,02,21,13,22,163.00
2009,02,21,13,23,164.60
2009,02,21,13,24,167.80
2009,02,21,13,25,170.00
2009,02,21,13,26,172.70
2009,02,21,13,27,175.10
2009,02,21,13,28,177.60
2009,02,21,13,29,181.70
2009,02,21,13,30,186.20
2009,02,21,13,31,191.90
2009,02,21,13,32,198.00
2009,02,21,13,33,205.30
2009,02,21,13,34,206.00
2009,02,21,13,35,208.60
2009,02,21,13,36,213.00
2009,02,21,13,37,216.00
2009,02,21,13,38,220.10
2009,02,21,13,39,221.40
2009,02,21,13,40,225.00
2009,02,21,13,41,225.00
2009,02,21,13,42,225.00
2009,02,21,13,43,223.90
2009,02,21,13,44,220.70
2009,02,21,13,45,218.60
2009,02,21,13,46,214.80
2009,02,21,13,47,212.10
2009,02,21,13,48,210.00
2009,02,21,13,49,207.90
2009,02,21,13,50,206.40
2009,02,21,13,51,206.00
2009,02,21,13,52,208.20
2009,02,21,13,53,210.40
2009,02,21,13,54,214.90
2009,02,21,13,55,219.00
2009,02,21,13,56,224.40
2009,02,21,13,57,231.20
2009,02,21,13,58,237.90
2009,02,21,13,59,246.00
2009,02,21,14,00,251.00
2009,02,21,14,01,258.80
2009,02,21,14,02,275.40
2009,02,21,14,03,296.70
2009,02,21,14,04,302.20
2009,02,21,14,05,346.00
2009,02,21,14,06,374.00
2009,02,21,14,07,402.90
2009,02,21,14,08,473.30
2009,02,21,14,09,434.50
2009,02,21,14,10,369.80
2009,02,21,14,11,345.50
2009,02,21,14,12,364.00
2009,02,21,14,13,368.00
2009,02,21,14,14,400.40
2009,02,21,14,15,402.10
2009,02,21,14,16,392.00
2009,02,21,14,17,490.70
2009,02,21,14,18,495.90
2009,02,21,14,19,458.90
2009,02,21,14,20,442.60
2009,02,21,14,21,438.20
2009,02,21,14,22,445.20
2009,02,21,14,23,431.80
2009,02,21,14,24,428.20
2009,02,21,14,25,375.20
2009,02,21,14,26,369.30
2009,02,21,14,27,365.70
2009,02,21,14,28,335.20
2009,02,21,14,29,317.00
2009,02,21,14,30,308.30
2009,02,21,14,31,327.40
2009,02,21,14,32,387.90
2009,02,21,14,33,424.40
2009,02,21,14,34,428.00
2009,02,21,14,35,431.00
2009,02,21,14,36,420.00
2009,02,21,14,37,404.40
2009,02,21,14,38,341.70
2009,02,21,14,39,313.00
2009,02,21,14,40,257.70
2009,02,21,14,41,284.30
2009,02,21,14,42,336.20
2009,02,21,14,43,380.60
2009,02,21,14,44,347.20
2009,02,21,14,45,366.70
2009,02,21,14,46,390.00
2009,02,21,14,47,400.70
2009,02,21,14,48,395.10
2009,02,21,14,49,385.30
2009,02,21,14,50,360.60
2009,02,21,14,51,344.40
2009,02,21,14,52,338.70
2009,02,21,14,53,338.90
2009,02,21,14,54,342.50
2009,02,21,14,55,341.50
2009,02,21,14,56,336.00
2009,02,21,14,57,321.30
2009,02,21,14,58,299.10
2009,02,21,14,59,289.60
2009,02,21,15,00,295.40
2009,02,21,15,01,287.40
2009,02,21,15,02,271.40
2009,02,21,15,03,216.10
2009,02,21,15,04,247.80
2009,02,21,15,05,275.30
2009,02,21,15,06,309.20
2009,02,21,15,07,295.10
2009,02,21,15,08,258.00
2009,02,21,15,09,258.00
2009,02,21,15,10,152.80
2009,02,21,15,11,149.00
2009,02,21,15,12,153.20
2009,02,21,15,13,174.80
2009,02,21,15,14,195.00
2009,02,21,15,15,260.30
2009,02,21,15,16,292.00
2009,02,21,15,17,278.70
2009,02,21,15,18,235.60
2009,02,21,15,19,192.60
2009,02,21,15,20,161.50
2009,02,21,15,21,172.10
2009,02,21,15,22,197.80
2009,02,21,15,23,226.20
2009,02,21,15,24,215.70
2009,02,21,15,25,207.60
2009,02,21,15,26,199.70
2009,02,21,15,27,207.10
2009,02,21,15,28,248.10
2009,02,21,15,29,253.00
2009,02,21,15,30,266.60
2009,02,21,15,31,221.00
2009,02,21,15,32,221.80
2009,02,21,15,33,199.60
2009,02,21,15,34,195.10
2009,02,21,15,35,223.50
2009,02,21,15,36,233.80
2009,02,21,15,37,202.80
2009,02,21,15,38,188.00
2009,02,21,15,39,185.80
2009,02,21,15,40,177.00
2009,02,21,15,41,164.40
2009,02,21,15,42,152.90
2009,02,21,15,43,143.00
2009,02,21,15,44,133.30
2009,02,21,15,45,128.20
2009,02,21,15,46,124.60
2009,02,21,15,47,121.80
2009,02,21,15,48,118.80
2009,02,21,15,49,116.40
2009,02,21,15,50,113.50
2009,02,21,15,51,111.20
2009,02,21,15,52,107.70
2009,02,21,15,53,105.10
2009,02,21,15,54,104.00
2009,02,21,15,55,102.10
2009,02,21,15,56,102.10
2009,02,21,15,57,104.10
2009,02,21,15,58,105.30
2009,02,21,15,59,107.70
2009,02,21,16,00,111.60
2009,02,21,16,01,114.60
2009,02,21,16,02,118.30
2009,02,21,16,03,127.00
2009,02,21,16,04,138.10
2009,02,21,16,05,142.00
2009,02,21,16,06,145.00
2009,02,21,16,07,155.80
2009,02,21,16,08,162.00
2009,02,21,16,09,170.00
2009,02,21,16,10,172.70
2009,02,21,16,11,165.50
2009,02,21,16,12,151.90
2009,02,21,16,13,146.80
2009,02,21,16,14,142.90
2009,02,21,16,15,137.60
2009,02,21,16,16,134.20
2009,02,21,16,17,128.00
2009,02,21,16,18,121.00
2009,02,21,16,19,114.00
2009,02,21,16,20,106.70
2009,02,21,16,21,101.50
2009,02,21,16,22,96.10
2009,02,21,16,23,90.30
2009,02,21,16,24,87.00
2009,02,21,16,25,83.70
2009,02,21,16,26,81.40
2009,02,21,16,27,78.20
2009,02,21,16,28,76.60
2009,02,21,16,29,75.10
2009,02,21,16,30,74.00
2009,02,21,16,31,71.80
2009,02,21,16,32,69.30
2009,02,21,16,33,67.60
2009,02,21,16,34,65.60
2009,02,21,16,35,63.60
2009,02,21,16,36,63.00
2009,02,21,16,37,63.00
2009,02,21,16,38,63.00
2009,02,21,16,39,62.10
2009,02,21,16,40,60.20
2009,02,21,16,41,60.00
2009,02,21,16,42,57.90
2009,02,21,16,43,56.00
2009,02,21,16,44,55.70
2009,02,21,16,45,53.80
2009,02,21,16,46,52.60
2009,02,21,16,47,50.00
2009,02,21,16,48,46.70
2009,02,21,16,49,44.70
2009,02,21,16,50,41.00
2009,02,21,16,51,37.20
2009,02,21,16,52,34.00
2009,02,21,16,53,31.30
2009,02,21,16,54,27.60
2009,02,21,16,55,25.30
2009,02,21,16,56,25.00
2009,02,21,16,57,23.50
2009,02,21,16,58,23.00
2009,02,21,16,59,23.00
2009,02,21,17,00,23.00
2009,02,21,17,01,23.00
2009,02,21,17,02,23.00
2009,02,21,17,03,23.00
2009,02,21,17,04,23.00
2009,02,21,17,05,23.00
2009,02,21,17,06,23.00
2009,02,21,17,07,23.00
2009,02,21,17,08,23.00
2009,02,21,17,09,23.00
2009,02,21,17,10,22.40
2009,02,21,17,11,21.00
2009,02,21,17,12,21.00
2009,02,21,17,13,21.00
2009,02,21,17,14,21.90
2009,02,21,17,15,22.10
2009,02,21,17,16,19.90